Terug naar catalogus

ONEWEB-0023

ActiefCommunicatiePO
NORAD 45136·PAYLOAD·🇬🇧 United Kingdom

Gelanceerd Feb 6, 2020 vanaf Baikonur Cosmodrome

Loading…

Volgende Passages (komende 24 uur)

TLE

VersSource: CelesTrak SupGP

Epoch: Sep 14, 2026, 08:20 UTC

1 45136C 20008F   26257.34772405  .00000382  00000+0  10961-2 0  2571
2 45136  87.8907  18.5147 0001786 107.6199 318.1269 13.10373465    15

Volg ONEWEB-0023 in realtime met AllMySat

Download on the App Store